• In Hungary
  • List of Countries
  • For 7 days
  • Water Temperature
  • Satellite Maps
  • Weather Map
  • News
  • Weather Widgets
  • user-avatar
    Login

    Hourly Weather Puente-Genil

    Today, 15 November, Thursday

    Time Temperature Precipitation Wind Pressure Humidity
    00:00 +15°C° 0 mm 1 mps 740 mmHg 78%
    01:00 +15°C° 0 mm 1 mps 740 mmHg 78%
    02:00 +14°C° 0 mm 1 mps 740 mmHg 79%
    03:00 +14°C° 0 mm 1 mps 740 mmHg 79%
    04:00 +14°C° 0 mm 1 mps 740 mmHg 79%
    05:00 +14°C° 0 mm 1 mps 740 mmHg 80%
    06:00 +14°C° 0 mm 1 mps 740 mmHg 81%
    07:00 +15°C° 0 mm 1 mps 740 mmHg 77%
    08:00 +16°C° 0 mm 1 mps 740 mmHg 73%
    09:00 +18°C° 0 mm 1 mps 740 mmHg 69%
    10:00 +19°C° 0 mm 1 mps 741 mmHg 63%
    11:00 +21°C° 0 mm 1 mps 741 mmHg 58%
    12:00 +21°C° 0 mm 1 mps 741 mmHg 57%
    13:00 +21°C° 0.1 mm 1 mps 741 mmHg 56%
    14:00 +22°C° 0.1 mm 1 mps 741 mmHg 55%
    15:00 +22°C° 0.1 mm 1 mps 740 mmHg 54%
    16:00 +21°C° 0 mm 1 mps 740 mmHg 59%
    17:00 +20°C° 0 mm 1 mps 740 mmHg 63%
    18:00 +16°C° 0 mm 0 mps 740 mmHg 68%
    19:00 +18°C° 0 mm 1 mps 741 mmHg 70%
    20:00 +18°C° 0 mm 1 mps 741 mmHg 72%
    21:00 +16°C° 0 mm 1 mps 741 mmHg 73%
    22:00 +16°C° 0 mm 1 mps 741 mmHg 75%
    23:00 +15°C° 0 mm 1 mps 741 mmHg 76%

    Tomorrow, 16 November, Friday

    Time Temperature Precipitation Wind Pressure Humidity
    00:00 +15°C° 0 mm 1 mps 741 mmHg 77%
    01:00 +15°C° 0 mm 1 mps 741 mmHg 78%
    02:00 +15°C° 0 mm 1 mps 741 mmHg 78%
    03:00 +14°C° 0 mm 1 mps 741 mmHg 79%
    04:00 +14°C° 0 mm 1 mps 741 mmHg 79%
    05:00 +14°C° 0 mm 1 mps 741 mmHg 80%
    06:00 +14°C° 0 mm 1 mps 741 mmHg 80%
    07:00 +15°C° 0 mm 2 mps 741 mmHg 77%
    08:00 +16°C° 0 mm 2 mps 741 mmHg 73%
    09:00 +16°C° 0 mm 2 mps 741 mmHg 70%
    10:00 +18°C° 0 mm 2 mps 741 mmHg 65%
    11:00 +19°C° 0 mm 2 mps 741 mmHg 59%
    12:00 +20°C° 0 mm 2 mps 741 mmHg 54%
    13:00 +21°C° 0 mm 2 mps 741 mmHg 53%
    14:00 +21°C° 0 mm 2 mps 740 mmHg 51%
    15:00 +21°C° 0 mm 2 mps 740 mmHg 50%
    16:00 +21°C° 0 mm 1 mps 740 mmHg 55%
    17:00 +19°C° 0 mm 1 mps 740 mmHg 60%
    18:00 +18°C° 0 mm 1 mps 740 mmHg 65%
    19:00 +18°C° 0 mm 1 mps 740 mmHg 67%
    20:00 +16°C° 0 mm 1 mps 740 mmHg 69%
    21:00 +16°C° 0 mm 1 mps 741 mmHg 71%
    22:00 +15°C° 0 mm 1 mps 740 mmHg 72%
    23:00 +15°C° 0 mm 1 mps 740 mmHg 73%

    Day after tomorrow, 17 November, Saturday

    Time Temperature Precipitation Wind Pressure Humidity
    00:00 +15°C° 0 mm 1 mps 740 mmHg 74%
    01:00 +14°C° 0 mm 1 mps 740 mmHg 74%
    02:00 +14°C° 0 mm 1 mps 740 mmHg 75%
    03:00 +14°C° 0 mm 1 mps 740 mmHg 76%
    04:00 +14°C° 0 mm 2 mps 740 mmHg 77%
    05:00 +14°C° 0 mm 2 mps 740 mmHg 77%
    06:00 +13°C° 0 mm 2 mps 739 mmHg 78%
    07:00 +14°C° 0 mm 2 mps 740 mmHg 74%
    08:00 +15°C° 0 mm 2 mps 740 mmHg 71%
    09:00 +16°C° 0 mm 2 mps 740 mmHg 67%
    10:00 +18°C° 0 mm 2 mps 740 mmHg 62%
    11:00 +19°C° 0 mm 2 mps 739 mmHg 58%
    12:00 +20°C° 0 mm 3 mps 739 mmHg 53%
    13:00 +20°C° 0 mm 3 mps 739 mmHg 53%
    14:00 +20°C° 0 mm 3 mps 738 mmHg 53%
    15:00 +21°C° 0 mm 3 mps 738 mmHg 53%
    16:00 +19°C° 0 mm 3 mps 737 mmHg 58%
    17:00 +18°C° 0 mm 3 mps 737 mmHg 64%
    18:00 +17°C° 0 mm 2 mps 737 mmHg 69%
    19:00 +17°C° 0 mm 2 mps 737 mmHg 71%
    20:00 +16°C° 0 mm 3 mps 737 mmHg 73%
    21:00 +16°C° 0 mm 3 mps 737 mmHg 75%
    22:00 +16°C° 0.1 mm 3 mps 736 mmHg 76%
    23:00 +16°C° 0.1 mm 3 mps 736 mmHg 77%

    18 November, Sunday

    Time Temperature Precipitation Wind Pressure Humidity
    00:00 +16°C° 0.1 mm 3 mps 735 mmHg 78%
    01:00 +14°C° 0.3 mm 3 mps 735 mmHg 79%
    02:00 +15°C° 0.3 mm 2 mps 734 mmHg 80%
    03:00 +15°C° 0.3 mm 2 mps 734 mmHg 81%
    04:00 +15°C° 0.7 mm 2 mps 734 mmHg 82%
    05:00 +15°C° 0.7 mm 2 mps 734 mmHg 83%
    06:00 +14°C° 0.7 mm 3 mps 733 mmHg 83%
    07:00 +15°C° 0.9 mm 2 mps 734 mmHg 83%
    08:00 +15°C° 0.9 mm 2 mps 734 mmHg 83%
    09:00 +15°C° 0.9 mm 2 mps 734 mmHg 83%
    10:00 +15°C° 1.1 mm 2 mps 734 mmHg 81%
    11:00 +16°C° 1.1 mm 2 mps 734 mmHg 79%
    12:00 +16°C° 1.1 mm 3 mps 733 mmHg 77%
    13:00 +16°C° 0.7 mm 2 mps 733 mmHg 76%
    14:00 +16°C° 0.7 mm 2 mps 733 mmHg 74%
    15:00 +17°C° 0.7 mm 2 mps 733 mmHg 73%
    16:00 +16°C° 0.6 mm 2 mps 733 mmHg 77%
    17:00 +15°C° 0.6 mm 2 mps 732 mmHg 81%
    18:00 +14°C° 0.6 mm 1 mps 732 mmHg 84%
    19:00 +14°C° 0.3 mm 1 mps 732 mmHg 85%
    20:00 +14°C° 0.3 mm 1 mps 733 mmHg 85%
    21:00 +13°C° 0.3 mm 1 mps 733 mmHg 86%
    22:00 +13°C° 0.1 mm 1 mps 733 mmHg 86%
    23:00 +13°C° 0.1 mm 1 mps 732 mmHg 86%

    19 November, Monday

    Time Temperature Precipitation Wind Pressure Humidity
    00:00 +13°C° 0.1 mm 1 mps 732 mmHg 86%
    01:00 +13°C° 0.1 mm 1 mps 732 mmHg 85%
    02:00 +13°C° 0.1 mm 1 mps 732 mmHg 85%
    03:00 +13°C° 0.1 mm 1 mps 731 mmHg 84%
    04:00 +12°C° 0 mm 1 mps 731 mmHg 85%
    05:00 +12°C° 0 mm 1 mps 731 mmHg 85%
    06:00 +12°C° 0 mm 1 mps 731 mmHg 85%
    07:00 +12°C° 0 mm 1 mps 731 mmHg 81%
    08:00 +13°C° 0 mm 1 mps 731 mmHg 78%
    09:00 +14°C° 0 mm 1 mps 732 mmHg 74%
    10:00 +15°C° 0 mm 1 mps 732 mmHg 68%
    11:00 +16°C° 0 mm 1 mps 732 mmHg 62%
    12:00 +18°C° 0 mm 1 mps 732 mmHg 57%
    13:00 +18°C° 0 mm 1 mps 731 mmHg 56%
    14:00 +19°C° 0 mm 1 mps 731 mmHg 55%
    15:00 +18°C° 0 mm 2 mps 731 mmHg 54%
    16:00 +17°C° 0.1 mm 2 mps 731 mmHg 60%
    17:00 +16°C° 0.1 mm 2 mps 731 mmHg 66%
    18:00 +14°C° 0.1 mm 2 mps 732 mmHg 72%
    19:00 +14°C° 0.1 mm 2 mps 732 mmHg 75%
    20:00 +14°C° 0.1 mm 2 mps 733 mmHg 79%
    21:00 +13°C° 0.1 mm 2 mps 733 mmHg 82%
    22:00 +13°C° 0 mm 2 mps 733 mmHg 84%
    23:00 +13°C° 0 mm 2 mps 734 mmHg 86%

    20 November, Tuesday

    Time Temperature Precipitation Wind Pressure Humidity
    00:00 +12°C° 0 mm 2 mps 734 mmHg 88%
    01:00 +12°C° 0 mm 2 mps 734 mmHg 89%
    02:00 +12°C° 0 mm 2 mps 734 mmHg 90%
    03:00 +12°C° 0 mm 2 mps 734 mmHg 90%
    04:00 +12°C° 0 mm 2 mps 734 mmHg 91%
    05:00 +12°C° 0 mm 2 mps 735 mmHg 92%
    06:00 +12°C° 0 mm 2 mps 735 mmHg 92%
    07:00 +12°C° 0 mm 2 mps 735 mmHg 89%
    08:00 +13°C° 0 mm 2 mps 736 mmHg 87%
    09:00 +13°C° 0 mm 2 mps 737 mmHg 84%
    10:00 +13°C° 0 mm 3 mps 737 mmHg 78%
    11:00 +14°C° 0 mm 3 mps 737 mmHg 73%
    12:00 +15°C° 0 mm 4 mps 737 mmHg 67%
    13:00 +17°C° 0 mm 4 mps 737 mmHg 66%
    14:00 +16°C° 0 mm 5 mps 737 mmHg 64%
    15:00 +16°C° 0 mm 5 mps 737 mmHg 62%
    16:00 +15°C° 0 mm 4 mps 737 mmHg 66%
    17:00 +14°C° 0 mm 4 mps 737 mmHg 70%
    18:00 +13°C° 0 mm 3 mps 738 mmHg 74%
    19:00 +12°C° 0 mm 3 mps 738 mmHg 76%
    20:00 +12°C° 0 mm 3 mps 738 mmHg 79%
    21:00 +12°C° 0 mm 2 mps 739 mmHg 81%
    22:00 +12°C° 0 mm 2 mps 739 mmHg 81%
    23:00 +12°C° 0 mm 2 mps 739 mmHg 82%
    Show more